Location: Newark
(45.4422°N, 16.2769°E)
Time: 04:23:27
(UTC+00:00)

Explorer 7 - Pass Details

Date: 23 January 2021
Orbit: 484 x 677 km, 50.3° (Epoch: 05 March)

Event Time Altitude Azimuth Distance (km) Brightness Sun altitude
Exits shadow 04:29:53 56° 235° (SW) 614 6.7 -20.0°
Maximum altitude 04:30:40 85° 154° (SSE) 522 6.6 -19.9°
Drops below altitude 10° 04:34:44 10° 65° (ENE) 1,795 10.3 -19.2°
Sets 04:37:02 0° 65° (ENE) 2,723 11.3 -18.8°
